Regional Weather Roundup
Issued by NWS State College, PA

Home | Current Version | Previous Version | Text Only | Print | Product List | Glossary On
Versions: 1 2 3 4 5 6 7 8 9 10 11 12 13 14 15 16 17 18 19 20 21 22 23 24 25 26 27 28 29 30 31 32 33 34 35 36 37 38 39 40 41 42 43 44 45 46 47 48 49 50
000
ASUS41 KCTP 211303
RWRCTP

REGIONAL WEATHER ROUNDUP
NATIONAL WEATHER SERVICE STATE COLLEGE PA
800 AM EST SAT JAN 21 2017

Note: "fair" indicates few or no clouds below 12,000 feet with no
significant weather and/or obstructions to visibility.

* = STATION THAT DOES NOT REPORT PRECIPITATION /E.G. RAIN...SNOW...ETC/
    THUNDER OR FOG.

PAZ002>004-007>009-013>016-020>023-029>032-211400-
WESTERN PENNSYLVANIA

CITY           SKY/WX    TMP DP  RH WIND       PRES   REMARKS
ERIE           CLOUDY    50  46  86 S12       29.76F
MEADVILLE      CLOUDY    46  44  93 CALM      29.78S FOG
FRANKLIN*        N/A     45  43  93 SE5       29.81F VSB<1/4
NEW CASTLE     FOG       37  37 100 CALM      29.79F VSB 1/4
BEAVER COUNTY  NOT AVBL
BUTLER*        CLOUDY    37  36  93 E3        29.82F VSB<1/4
PITTSBURGH INT FOG       43  43 100 SE3       29.79F VSB 1/4
PITTSBURGH     CLOUDY    47  45  93 S9        29.79F FOG
INDIANA*       MOCLDY    45  45 100 CALM      29.84F FOG
LATROBE        MOCLDY    37  37 100 CALM      29.82F
WASHINGTON CO* CLOUDY    36  36 100 CALM      29.80F VSB<1/4
$$

PAZ004>006-010>012-017>019-024>028-033>037-041-042-045-046-049>053-211400-
CENTRAL PENNSYLVANIA

CITY           SKY/WX    TMP DP  RH WIND       PRES   REMARKS
BRADFORD       FOG       46  46 100 S7        29.82S VSB 1/2
DUBOIS         FOG       43  41  93 SE3       29.81F VSB 1/4
CLEARFIELD     FOG       38  38 100 N3        29.84F VSB<1/4
JOHNSTOWN      CLOUDY    48  47  96 SW5       29.82F
ALTOONA        FOG       36  35  96 CALM      29.86S VSB<1/4
STATE COLLEGE  FOG       37  37 100 CALM      29.88S VSB 1/8
WILLIAMSPORT   FOG       39  38  96 CALM      29.89S VSB<1/4
SELINSGROVE    CLOUDY    40  39  97 CALM      29.91S FOG
FT INDIANTOWN  CLOUDY    39  39 100 CALM      29.90S FOG
CAPITAL CITY   FOG       41  39  93 CALM      29.91R VSB 1/4
HARRISBURG     FOG       40  40 100 NW3       29.91R VSB 1/8
YORK           FOG       42  42 100 CALM      29.90R VSB 1/4
$$

PAZ038>040-043-044-047-048-054-055-060>062-067>071-211400-
EASTERN PENNSYLVANIA

CITY           SKY/WX    TMP DP  RH WIND       PRES   REMARKS
SCRANTON       FOG       40  40 100 SW5       29.87S VSB 1/2
MOUNT POCONO   FOG       38  37  97 W10       29.84R VSB 1/4
ALLENTOWN      FOG       40  38  93 SW8       29.89S VSB 1/2
QUAKERTOWN*    CLOUDY    39  39 100 CALM      29.90R VSB 1/4
READING        FOG       39  39 100 CALM      29.90S VSB 1/4
LANCASTER      FOG       42  42 100 CALM      29.91R VSB<1/4
COATESVILLE    FOG       41  41 100 CALM      29.90S VSB<1/4
POTTSTOWN      FOG       40  40 100 CALM      29.91S VSB 1/4
BLUE BELL      CLOUDY    41  41 100 CALM      29.89S VSB 1
DOYLESTOWN     CLOUDY    42  42 100 W3        29.89R FOG
WILLOW GROVE   NOT AVBL
NORTH PHILA    CLOUDY    45  44  97 SW3       29.91F FOG
PHILADELPHIA   FOG       43  43 100 W6        29.92R VSB 1/4
$$




USA.gov is the U.S. government's official web portal to all federal, state and local government web resources and services.